FW3692 Weather Reports


time (UTC)temp
F
wind
direction
speed
knots
gust
knots
rain 1hr
in
rain 24hr
in
rain mn
in
humidity
%
barometer
mb
20210920061709 74 81 0.0 0.0 0.00 0.00 0.00 43 1003.4
20210920060207 75 78 0.0 0.0 0.00 0.00 0.00 43 1003.3
20210920054707 75 81 0.0 0.0 0.00 0.00 0.00 43 1003.3
20210920051706 77 79 0.0 0.0 0.00 0.00 0.00 41 1002.9
20210920044706 78 81 0.0 0.0 0.00 0.00 0.00 39 1002.9
20210920043705 78 79 0.0 0.0 0.00 0.00 0.00 38 1002.9
20210920043206 78 79 0.0 0.0 0.00 0.00 0.00 38 1002.9
20210920041707 79 81 0.0 0.0 0.00 0.00 0.00 38 1002.7
20210920033705 81 79 0.0 0.0 0.00 0.00 0.00 35 1002.6
20210920031706 83 82 0.0 0.0 0.00 0.00 0.00 33 1002.3
20210920030706 84 79 0.0 0.0 0.00 0.00 0.00 31 1002.1
20210920023704 87 75 0.0 0.0 0.00 0.00 0.00 29 1002.0
20210920023206 88 79 0.0 0.0 0.00 0.00 0.00 29 1002.1
20210920021707 89 81 0.0 2.6 0.00 0.00 0.00 28 1002.1
20210920020706 90 79 0.9 2.6 0.00 0.00 0.00 27 1001.9
20210920014706 92 81 0.0 5.2 0.00 0.00 0.00 26 1001.7
20210920014204 92 78 0.0 5.2 0.00 0.00 0.00 26 1001.7
20210920013207 93 77 0.9 5.2 0.00 0.00 0.00 26 1001.6
20210920011204 94 79 2.6 6.1 0.00 0.00 0.00 25 1001.7
20210920004204 96 68 2.6 7.8 0.00 0.00 0.00 26 1001.7
20210920001706 96 62 2.6 8.7 0.00 0.00 0.00 25 1001.8
20210920001205 97 93 5.2 10.4 0.00 0.00 0.00 24 1001.8
20210920000705 97 100 3.5 10.4 0.00 0.00 0.00 24 1001.9
20210919234204 98 69 2.6 10.4 0.00 0.00 0.00 25 1002.0
20210919233704 98 77 5.2 10.4 0.00 0.00 0.00 26 1002.0
20210919231706 99 64 2.6 10.4 0.00 0.00 0.00 26 1002.2
20210919231205 100 47 6.1 10.4 0.00 0.00 0.00 25 1002.3
20210919230704 101 99 5.2 10.4 0.00 0.00 0.00 26 1002.3
20210919230208 101 91 4.3 8.7 0.00 0.00 0.00 26 1002.3
20210919223704 101 128 2.6 10.4 0.00 0.00 0.00 26 1002.5
20210919221706 100 359 2.6 6.1 0.00 0.00 0.00 29 1002.8
20210919220704 99 20 0.0 8.7 0.00 0.00 0.00 31 1002.8
20210919214706 99 109 3.5 10.4 0.00 0.00 0.00 31 1003.0
20210919214203 99 76 5.2 10.4 0.00 0.00 0.00 32 1003.1
20210919211707 99 77 3.5 10.4 0.00 0.00 0.00 34 1003.3
20210919211204 99 48 3.5 10.4 0.00 0.00 0.00 36 1003.4
20210919204205 98 31 6.1 10.4 0.00 0.00 0.00 36 1003.8
20210919203206 97 91 0.9 10.4 0.00 0.00 0.00 38 1003.9
20210919201706 94 344 2.6 7.8 0.00 0.00 0.00 43 1004.1
20210919201205 94 348 0.0 7.8 0.00 0.00 0.00 41 1004.3
20210919200706 95 347 5.2 10.4 0.00 0.00 0.00 40 1004.3
20210919194204 97 4 2.6 7.8 0.00 0.00 0.00 39 1004.6
20210919191706 97 354 4.3 8.7 0.00 0.00 0.00 39 1005.0
20210919191205 97 349 2.6 7.8 0.00 0.00 0.00 39 1005.1
20210919183704 96 331 2.6 6.1 0.00 0.00 0.00 39 1005.6
20210919183207 96 308 0.9 7.0 0.00 0.00 0.00 39 1005.6
20210919181706 95 305 2.6 7.0 0.00 0.00 0.00 41 1005.8
20210919181204 94 333 4.3 7.0 0.00 0.00 0.00 41 1005.9
20210919180704 94 335 0.0 7.0 0.00 0.00 0.00 42 1005.9
20210919180206 94 318 2.6 7.0 0.00 0.00 0.00 41 1006.0
20210919173704 93 322 1.7 7.0 0.00 0.00 0.00 40 1006.2
20210919173206 93 303 0.0 7.8 0.00 0.00 0.00 41 1006.3
20210919171706 92 302 2.6 6.1 0.00 0.00 0.00 44 1006.4
20210919171204 93 327 4.3 6.1 0.00 0.00 0.00 42 1006.5
20210919170705 92 316 4.3 7.0 0.00 0.00 0.00 44 1006.5
20210919170206 92 309 0.0 7.0 0.00 0.00 0.00 42 1006.5
20210919164708 92 303 4.3 6.1 0.00 0.00 0.00 44 1006.6
20210919161205 90 323 0.0 5.2 0.00 0.00 0.00 48 1006.7
20210919160206 89 313 0.0 2.6 0.00 0.00 0.00 50 1006.8
20210919150704 84 318 0.0 0.0 0.00 0.00 0.00 56 1006.7
20210919143206 76 299 0.0 0.0 0.00 0.00 0.00 74 1006.6
20210919141204 75 310 0.0 0.0 0.00 0.00 0.00 77 1006.5
20210919140704 75 319 0.0 0.0 0.00 0.00 0.00 77 1006.5
20210919140206 75 359 0.0 0.0 0.00 0.00 0.00 77 1006.4
20210919134206 75 322 0.0 0.0 0.00 0.00 0.00 76 1006.3
20210919131707 76 309 0.0 0.0 0.00 0.00 0.00 74 1006.0
20210919130704 76 309 0.0 0.0 0.00 0.00 0.00 75 1005.9
20210919124208 76 307 0.0 0.0 0.00 0.00 0.00 75 1005.9
20210919121708 75 308 0.0 0.0 0.00 0.00 0.00 77 1005.8
20210919121205 75 310 0.0 0.0 0.00 0.00 0.00 78 1005.9
20210919120704 75 306 0.0 0.0 0.00 0.00 0.00 78 1005.7
20210919111717 75 310 0.0 0.0 0.00 0.00 0.00 75 1005.6
20210919111205 75 308 0.0 0.0 0.00 0.00 0.00 74 1005.6
20210919110704 75 307 0.0 0.0 0.00 0.00 0.00 74 1005.6
20210919110206 76 306 0.0 0.0 0.00 0.00 0.00 74 1005.5
20210919104204 76 310 0.0 0.0 0.00 0.00 0.00 73 1005.5
20210919101204 77 307 0.0 0.0 0.00 0.00 0.00 72 1005.5
20210919100704 77 312 0.0 0.0 0.00 0.00 0.00 72 1005.7
20210919091706 78 308 0.0 0.0 0.00 0.00 0.00 66 1006.0
20210919084706 79 306 0.0 0.0 0.00 0.00 0.00 65 1006.0
20210919084204 79 305 0.0 2.6 0.00 0.00 0.00 65 1006.1
20210919083704 80 306 0.0 4.3 0.00 0.00 0.00 65 1006.1
20210919083208 80 305 0.0 4.3 0.00 0.00 0.00 65 1006.1
20210919081204 80 306 0.9 5.2 0.00 0.00 0.00 64 1006.3
20210919080207 80 306 1.7 4.3 0.00 0.00 0.00 64 1006.2
20210919074205 80 309 1.7 7.0 0.00 0.00 0.00 65 1006.3
20210919073209 80 359 1.7 5.2 0.00 0.00 0.00 65 1006.3
20210919064204 79 311 0.0 4.3 0.00 0.00 0.00 65 1006.3
20210919063704 79 308 0.0 4.3 0.00 0.00 0.00 65 1006.3